Weather History for North Island, CA

Change the Weather History Date:

Tuesday, May 15, 2012

  Actual Average Record
Temperature  
Mean Temperature 66 °F -  
Max Temperature 71 °F 65 °F 100 °F (2014)
Min Temperature 62 °F 56 °F 52 °F (1998)
Cooling Degree Days 1    
Growing Degree Days 16 (Base 50)    
Moisture  
Dew Point 54 °F    
Average Humidity 66    
Maximum Humidity 78    
Minimum Humidity 53    
Precipitation  
Precipitation 0.00 in - - ()
Sea Level Pressure  
Sea Level Pressure 29.92 in    
Wind  
Wind Speed 7 mph (WNW)    
Max Wind Speed 13 mph    
Max Gust Speed -    
Visibility 9 miles    
Events      
Averages and records for this station are not official NWS values.
T = Trace of Precipitation, MM = Missing Value Source: NWS Daily Summary

Daily Weather History Graph

Daily Weather History Graph

Search for Another Location

Airport:

Trip Planner

Search our weather history database for the weather conditions in past years. The results will help you decide how hot, cold, wet, or windy it might be!

Date:

Astronomy

May. 15, 2012 Rise Set
Actual Time 5:49 AM PDT 7:41 PM PDT
Civil Twilight 5:22 AM PDT 8:08 PM PDT
Nautical Twilight 4:49 AM PDT 8:41 PM PDT
Astronomical Twilight 4:14 AM PDT 9:16 PM PDT
Moon 2:38 AM PDT (5/15) 3:17 PM PDT (5/15)
Length of Visible Light 14h 45m
Length of Day
13h 51m
Waning Crescent, 23% of the Moon is Illuminated
May 15
Waning Crescent
May 20
New
May 28
First Quarter
Jun 4
Full
Jun 11
Last Quarter

Hourly Weather History & Observations

Time (PDT) Temp. Dew Point Humidity Pressure Visibility Wind Dir Wind Speed Gust Speed Precip Events Conditions
12:40 AM 62.6 °F 55.4 °F 77% 29.96 in 7.0 mi WNW 6.9 mph - N/A   Mostly Cloudy
12:52 AM 63.0 °F 55.9 °F 78% 29.96 in 7.0 mi NW 6.9 mph - N/A   Mostly Cloudy
1:52 AM 62.6 °F 55.4 °F 77% 29.95 in 8.0 mi NW 6.9 mph - N/A   Mostly Cloudy
2:52 AM 64.0 °F 55.0 °F 73% 29.95 in 8.0 mi NW 6.9 mph - N/A   Mostly Cloudy
3:52 AM 64.0 °F 55.0 °F 73% 29.94 in 8.0 mi WNW 6.9 mph - N/A   Overcast
4:52 AM 64.0 °F 54.0 °F 70% 29.94 in 8.0 mi NNW 3.5 mph - N/A   Overcast
5:52 AM 63.0 °F 54.0 °F 72% 29.94 in 8.0 mi WNW 5.8 mph - N/A   Overcast
6:52 AM 63.0 °F 53.1 °F 70% 29.94 in 8.0 mi NW 9.2 mph - N/A   Overcast
7:52 AM 63.0 °F 53.1 °F 70% 29.94 in 8.0 mi WNW 4.6 mph - N/A   Overcast
8:52 AM 64.9 °F 53.1 °F 65% 29.96 in 9.0 mi Calm Calm - N/A   Mostly Cloudy
9:52 AM 66.9 °F 53.1 °F 61% 29.95 in 9.0 mi West 5.8 mph - N/A   Scattered Clouds
10:52 AM 68.0 °F 52.0 °F 56% 29.94 in 10.0 mi WNW 10.4 mph - N/A   Partly Cloudy
11:52 AM 68.0 °F 52.0 °F 56% 29.94 in 9.0 mi WNW 11.5 mph - N/A   Partly Cloudy
12:52 PM 70.0 °F 52.0 °F 53% 29.92 in 10.0 mi WNW 9.2 mph - N/A   Partly Cloudy
1:52 PM 70.0 °F 52.0 °F 53% 29.92 in 10.0 mi WNW 11.5 mph - N/A   Clear
2:52 PM 70.0 °F 52.0 °F 53% 29.90 in 9.0 mi WNW 12.7 mph - N/A   Clear
3:52 PM 70.0 °F 53.1 °F 55% 29.89 in 9.0 mi WNW 10.4 mph - N/A   Clear
4:52 PM 69.1 °F 54.0 °F 58% 29.87 in 9.0 mi WNW 11.5 mph - N/A   Clear
5:52 PM 69.1 °F 54.0 °F 58% 29.88 in 9.0 mi WNW 9.2 mph - N/A   Partly Cloudy
6:52 PM 66.9 °F 54.0 °F 63% 29.88 in 9.0 mi NW 10.4 mph - N/A   Partly Cloudy
7:52 PM 66.0 °F 54.0 °F 65% 29.89 in 10.0 mi NW 8.1 mph - N/A   Partly Cloudy
8:52 PM 64.4 °F 55.4 °F 73% - 9.0 mi NW 5.8 mph - N/A   Partly Cloudy
9:52 PM 64.9 °F 55.9 °F 73% 29.91 in 8.0 mi NW 6.9 mph - N/A   Partly Cloudy
10:16 PM - - N/A% - - North - - N/A   Unknown
10:52 PM 64.9 °F 55.9 °F 73% 29.92 in 8.0 mi NNW 4.6 mph - N/A   Partly Cloudy
11:52 PM 64.0 °F 55.9 °F 75% 29.91 in 8.0 mi West 3.5 mph - N/A   Partly Cloudy